User: anonymous   Login
Location: Asheville, NC
(35.6000°N, 82.5500°W)
Time: 17:14:27
(UTC-04:00)
Language:

UWE-3 - Orbit

View from above orbital plane
View from above orbital plane
View from above satellite
View from above satellite

Ground track
Ground track

The orbit data is extracted from the following two-line orbital elements,

1 39446U 13066AG  18168.84039746  .00000156  00000-0  27493-4 0  9998
2 39446  97.5924 190.3446 0070438 172.3847 187.8452 14.78212667245218
Epoch (UTC): 17 June 2018 20:10:10
Eccentricity: 0.0070438
inclination: 97.5924°
perigee height: 585 km
apogee height: 684 km
right ascension of ascending node: 190.3446°
argument of perigee: 172.3847°
revolutions per day: 14.78212667
mean anomaly at epoch: 187.8452°
orbit number at epoch: 24521

The dashed part of the orbit path shows where the satellite is in the earth's shadow,  

DLR